User: anonymous   Login
Location: Hancock Field Station
(44.9202°N, 120.4259°W)
Time: 08:13:50
(UTC-07:00)
Language:

Cosmos 1707 - Orbit

View from above orbital plane
View from above orbital plane
View from above satellite
View from above satellite

Ground track
Ground track

The orbit data is extracted from the following two-line orbital elements,

1 16326U 85113A   17086.82916429 +.00001541 +00000-0 +85141-4 0  9993
2 16326 082.5096 288.2613 0009798 216.3049 143.7518 15.13172220705047
Epoch (UTC): 27 March 2017 19:53:59
Eccentricity: 0.0009798
inclination: 82.5096°
perigee height: 520 km
apogee height: 533 km
right ascension of ascending node: 288.2613°
argument of perigee: 216.3049°
revolutions per day: 15.13172220
mean anomaly at epoch: 143.7518°
orbit number at epoch: 70504

The dashed part of the orbit path shows where the satellite is in the earth's shadow,  

DLR